[[{"header":{"parameterUnit":"m.s-1","parameterCategory":1,"la1":30.2991,"la2":30.254,"lo1":-89.0895,"lo2":-89.0444,"dy":0.0017,"dx":0.0017,"nx":28,"ny":28,"refTime":"2025-09-17T03:00:00:Z","depth":0,"parameterNumber":2,"parameterNumberName":"U-component_of_WINDS"},"data":[0,0,0,0,0,0,0,0,0,0,0,0,0,0,0,0,0,0,0,0,0,0,0,0,0,0,0,0,0,0,0,0,0,0,0,0,0,0,0,0,0,0,0,0,0,0,0,0,0,0,0,0,0,0,0,0,0,0,1.7495,1.7495,0,1.7473,1.7473,1.7472,1.745,1.7449,1.7449,1.7449,1.7425,1.7424,1.7424,0,0,0,0,0,0,0,0,0,0,0,0,0,1.7516,1.7516,1.7495,1.7495,1.7495,1.7473,1.7473,1.7472,1.745,1.7449,1.7449,1.7449,1.7425,1.7424,1.7424,0,0,0,0,0,0,0,0,0,0,0,0,0,1.7502,1.7516,1.7495,1.7481,1.7479,1.7473,1.7473,1.7472,1.745,1.7449,1.7449,1.7448,1.7425,1.7424,1.7424,1.743,0,0,1.7422,1.7422,0,0,0,0,0,0,0,0,1.7502,1.7501,1.7483,1.7482,1.748,1.7464,1.7471,1.7458,1.745,1.7461,1.7449,1.7448,1.7438,1.7436,1.7433,1.7429,1.7428,1.7422,1.7422,1.7422,1.7422,0,0,0,0,0,0,0,1.7504,1.7502,1.7486,1.7483,1.7481,1.7475,1.7472,1.7468,1.7452,1.746,1.7458,1.7456,1.7437,1.7434,1.7432,1.7427,1.7422,1.7422,1.7421,1.7421,1.7424,1.7424,0,0,0,0,0,0,1.7507,1.7503,1.7487,1.7486,1.749,1.7475,1.7472,1.7469,1.7452,1.7449,1.7456,1.7455,1.7435,1.7433,1.7431,1.7435,1.7422,1.7421,1.7421,1.7423,1.7424,1.7424,0,0,0,0,0,0,1.7508,1.7506,1.7488,1.7494,1.7491,1.7475,1.7472,1.7469,1.7466,1.745,1.7446,1.7456,1.7434,1.7432,1.743,1.7434,1.7421,1.742,1.7423,1.7423,1.7424,1.7444,0,0,0,0,0,0,1.7508,1.7506,1.7509,1.7494,1.7491,1.7488,1.7473,1.7469,1.7465,1.7463,1.7448,1.7446,1.7434,1.7431,1.7429,1.7433,1.742,1.7422,1.7423,1.7424,1.7443,1.7446,1.7448,0,0,0,0,0,1.7509,1.7516,1.7509,1.7508,1.7494,1.7488,1.7486,1.7473,1.7466,1.7468,1.7457,1.7446,1.7434,1.7431,1.7429,1.7433,1.7422,1.7423,1.7424,1.7442,1.7445,1.7448,0,0,0,0,0,0,1.7532,1.7514,1.7506,1.7509,1.75,1.7484,1.7487,1.7477,1.747,1.7468,1.7451,1.7448,1.7447,1.744,1.7436,1.7436,1.7426,1.7427,1.7441,1.7444,1.7446,1.7447,1.742,0,0,0,0,0,1.7537,1.7535,1.7519,1.7522,1.7518,1.7503,1.75,1.749,1.7481,1.7477,1.7466,1.7457,1.745,1.7447,1.744,1.7442,1.7437,1.7444,1.7446,1.7448,1.7448,1.7446,1.7448,1.7427,1.7427,1.7427,0,0,1.7548,1.7538,1.7537,1.7526,1.7519,1.7515,1.75,1.7498,1.7494,1.7476,1.7473,1.7465,1.7453,1.7452,1.7451,1.7446,1.7453,1.7449,1.745,1.745,1.7447,1.7449,1.7451,1.7428,1.7428,1.7427,0,0,1.7566,1.7559,1.756,1.7552,1.754,1.753,1.753,1.7516,1.7509,1.7506,1.7491,1.7487,1.7477,1.7469,1.7463,1.7476,1.7465,1.7474,1.7485,1.7483,1.7485,1.7486,1.7489,1.7491,1.7475,1.7475,1.7475,0,1.7581,1.7576,1.7562,1.7559,1.7554,1.7537,1.7537,1.7531,1.7517,1.7513,1.7508,1.7494,1.7485,1.7481,1.7483,1.748,1.7479,1.7475,1.7486,1.7487,1.7488,1.7491,1.7492,1.7476,1.7476,1.7476,1.7475,0,1.7594,1.759,1.7592,1.7579,1.7574,1.7574,1.7558,1.7555,1.7545,1.7535,1.753,1.7519,1.7509,1.7507,1.7498,1.7501,1.7498,1.7489,1.7479,1.7492,1.7494,1.7495,1.7477,1.7477,1.7477,1.7476,0,0,1.7626,1.7604,1.7605,1.7598,1.7583,1.7579,1.7577,1.7567,1.7563,1.7554,1.7551,1.7542,1.7534,1.7527,1.7517,1.7516,1.7524,1.7507,1.7506,1.7509,1.7524,1.753,1.7531,1.7517,1.7517,1.7517,1.7524,0,1.764,1.7634,1.7621,1.7619,1.7615,1.7598,1.7595,1.7585,1.7575,1.7569,1.7558,1.7551,1.7542,1.7537,1.7535,1.7523,1.7526,1.7523,1.7512,1.7511,1.7514,1.7532,1.7539,1.7546,1.7525,1.7525,1.7526,0,1.7656,1.7647,1.7645,1.7628,1.7626,1.7624,1.7612,1.7607,1.7595,1.7588,1.758,1.7568,1.7563,1.7554,1.7545,1.7543,1.7538,1.7531,1.7531,1.7528,1.7519,1.7529,1.7549,1.755,1.7527,1.7527,1.7527,0,1.7677,1.7665,1.7661,1.7656,1.7637,1.7636,1.7628,1.7615,1.7609,1.7599,1.7595,1.7585,1.7579,1.7571,1.7556,1.7551,1.7548,1.7539,1.7541,1.7541,1.7541,1.7541,1.7558,1.7539,1.7539,1.7539,1.7539,0,1.7693,1.7692,1.767,1.7668,1.7666,1.765,1.7648,1.7638,1.7626,1.7621,1.7606,1.7601,1.7583,1.7575,1.7564,1.7557,1.7555,1.7548,1.7545,1.7549,1.755,1.7544,1.7543,1.7539,1.7539,1.7539,1.7539,0,1.7716,1.7702,1.7697,1.7679,1.7674,1.7673,1.7658,1.7654,1.7643,1.7636,1.7634,1.7616,1.7606,1.7591,1.7577,1.7569,1.7564,1.756,1.7568,1.7566,1.7569,1.7568,1.7583,1.7584,1.7565,1.7566,1.7566,0,1.7727,1.7725,1.7707,1.7703,1.7695,1.7688,1.7682,1.7666,1.766,1.7644,1.7642,1.7632,1.7622,1.7607,1.7592,1.7581,1.7575,1.7581,1.7573,1.7577,1.7573,1.7573,1.7572,1.7583,1.7583,1.7583,1.7583,0,1.7746,1.7739,1.7731,1.772,1.7713,1.7704,1.7694,1.7691,1.7672,1.7666,1.7656,1.7648,1.7633,1.7622,1.7608,1.7599,1.7587,1.7586,1.7585,1.7589,1.7594,1.759,1.7572,1.7585,1.7585,1.7585,1.7585,1.7585,1.7762,1.776,1.7746,1.7737,1.7728,1.7718,1.7713,1.7701,1.7693,1.768,1.767,1.7661,1.7646,1.7627,1.7618,1.7609,1.7604,1.7604,1.7604,1.7604,1.7605,1.7596,1.7607,1.7607,1.7607,1.7606,1.7606,0,1.778,1.777,1.7762,1.7748,1.7741,1.7731,1.7719,1.7713,1.7704,1.7692,1.7683,1.767,1.7659,1.7643,1.7631,1.7627,1.7621,1.7624,1.7623,1.7621,1.7611,1.7611,1.7629,1.7629,1.7629,1.7628,1.7628,1.7628,1.7788,1.7782,1.7773,1.7762,1.7752,1.7743,1.7736,1.7727,1.7717,1.7704,1.7694,1.7684,1.767,1.7656,1.7645,1.764,1.7636,1.764,1.7634,1.7624,1.7622,1.762,1.7621,1.7639,1.7639,1.7645,1.7645,1.7645]},{"header":{"parameterUnit":"m.s-1","parameterCategory":1,"la1":30.2991,"la2":30.254,"lo1":-89.0895,"lo2":-89.0444,"dy":0.0017,"dx":0.0017,"nx":28,"ny":28,"refTime":"2025-09-17T03:00:00:Z","depth":0,"parameterNumber":3,"parameterNumberName":"V-component_of_WINDS"},"data":[0,0,0,0,0,0,0,0,0,0,0,0,0,0,0,0,0,0,0,0,0,0,0,0,0,0,0,0,0,0,0,0,0,0,0,0,0,0,0,0,0,0,0,0,0,0,0,0,0,0,0,0,0,0,0,0,0,0,2.7976,2.7977,0,2.8016,2.8017,2.8017,2.7982,2.7981,2.7979,2.7978,2.8016,2.8018,2.802,0,0,0,0,0,0,0,0,0,0,0,0,0,2.7866,2.7868,2.7976,2.7977,2.7977,2.8016,2.8017,2.8017,2.7982,2.7981,2.7979,2.7977,2.8015,2.8018,2.802,0,0,0,0,0,0,0,0,0,0,0,0,0,2.791,2.7869,2.7976,2.7965,2.7964,2.8016,2.8017,2.8017,2.7983,2.798,2.7978,2.7976,2.8014,2.8017,2.8021,2.8086,0,0,2.8032,2.8033,0,0,0,0,0,0,0,0,2.7908,2.7914,2.7966,2.7966,2.7965,2.7992,2.7991,2.804,2.7983,2.7975,2.7978,2.7975,2.8009,2.8013,2.8025,2.8087,2.8089,2.8032,2.8034,2.8036,2.8037,0,0,0,0,0,0,0,2.7905,2.7912,2.7992,2.7967,2.7966,2.7956,2.796,2.8001,2.8004,2.7976,2.7974,2.7979,2.8009,2.8022,2.8026,2.809,2.8032,2.8035,2.8037,2.8038,2.8204,2.8206,0,0,0,0,0,0,2.7903,2.791,2.7991,2.7993,2.7931,2.796,2.7964,2.7985,2.8003,2.8004,2.7981,2.7977,2.8017,2.8022,2.8027,2.8102,2.8036,2.8039,2.8041,2.8202,2.8204,2.8207,0,0,0,0,0,0,2.7901,2.7911,2.7989,2.7951,2.796,2.7964,2.7988,2.7987,2.8001,2.8007,2.8007,2.7994,2.8015,2.8022,2.8071,2.8103,2.804,2.8044,2.8199,2.8202,2.8206,2.8254,0,0,0,0,0,0,2.7898,2.791,2.7936,2.7952,2.7962,2.8034,2.799,2.799,2.8007,2.8003,2.8019,2.802,2.8014,2.8066,2.8074,2.8107,2.8046,2.8196,2.82,2.8204,2.8249,2.8258,2.8266,0,0,0,0,0,2.7894,2.7948,2.7938,2.7948,2.7995,2.8036,2.8042,2.8035,2.801,2.8035,2.8039,2.8019,2.8098,2.8071,2.808,2.8114,2.8194,2.8199,2.8204,2.8245,2.8256,2.8266,0,0,0,0,0,0,2.7935,2.795,2.7939,2.7999,2.8017,2.803,2.8061,2.8047,2.8071,2.8066,2.8056,2.806,2.8111,2.8117,2.8087,2.8176,2.8142,2.8149,2.817,2.8181,2.8189,2.8185,2.8049,0,0,0,0,0,2.7952,2.7985,2.7995,2.8048,2.8057,2.8058,2.8075,2.8068,2.8085,2.8092,2.81,2.8116,2.8144,2.8163,2.8189,2.825,2.8252,2.8278,2.8286,2.8293,2.8299,2.8329,2.834,2.8224,2.8224,2.8224,0,0,2.7985,2.7997,2.8019,2.8056,2.8069,2.8101,2.8064,2.8101,2.8125,2.8098,2.8144,2.815,2.8167,2.8222,2.8246,2.8229,2.8332,2.83,2.8305,2.8307,2.8336,2.8347,2.8357,2.8227,2.8227,2.8226,0,0,2.8063,2.8076,2.812,2.8133,2.8153,2.8153,2.8164,2.8179,2.8182,2.8228,2.8208,2.8235,2.8285,2.8297,2.831,2.8391,2.8373,2.84,2.8443,2.8473,2.8482,2.849,2.8517,2.8527,2.8406,2.8406,2.8406,0,2.8101,2.8151,2.8144,2.8182,2.8198,2.8176,2.8219,2.8232,2.8259,2.827,2.8251,2.8311,2.8321,2.8377,2.8397,2.8409,2.8419,2.8397,2.8482,2.849,2.8497,2.8522,2.8533,2.8409,2.8409,2.8408,2.8408,0,2.8197,2.8232,2.8265,2.8292,2.8311,2.8352,2.8349,2.837,2.8361,2.8363,2.8409,2.842,2.8448,2.8461,2.8453,2.8515,2.8504,2.8483,2.8448,2.8511,2.8535,2.8544,2.8413,2.8412,2.8411,2.8411,0,0,2.8302,2.8323,2.8335,2.8346,2.8365,2.8391,2.843,2.8457,2.8474,2.8493,2.8524,2.8566,2.8546,2.8561,2.8554,2.858,2.8641,2.8556,2.8556,2.857,2.8707,2.8721,2.8733,2.863,2.8632,2.8633,2.8705,0,2.8378,2.8446,2.844,2.8503,2.8534,2.8513,2.8546,2.856,2.8562,2.8587,2.8589,2.8618,2.8592,2.86,2.8626,2.8628,2.8668,2.8623,2.8656,2.8657,2.8651,2.8745,2.8761,2.8828,2.8715,2.8716,2.8717,0,2.8477,2.8499,2.8566,2.8579,2.8591,2.8621,2.8645,2.867,2.8685,2.8684,2.87,2.8688,2.8725,2.869,2.8739,2.8709,2.8722,2.8725,2.8728,2.8729,2.869,2.8747,2.885,2.8859,2.8732,2.8731,2.873,0,2.8543,2.8591,2.8636,2.8646,2.8663,2.8684,2.8692,2.8705,2.8721,2.8741,2.8751,2.8776,2.8788,2.8807,2.8801,2.8776,2.8851,2.8816,2.8849,2.885,2.8865,2.8864,2.8969,2.8877,2.8877,2.8876,2.8876,0,2.8629,2.867,2.8666,2.8694,2.8738,2.873,2.8774,2.8779,2.8791,2.8818,2.8801,2.8826,2.8818,2.8842,2.8838,2.8878,2.8885,2.8884,2.8882,2.8884,2.8884,2.8892,2.8886,2.8879,2.8878,2.8878,2.8877,0,2.871,2.871,2.8757,2.8769,2.8773,2.8805,2.8814,2.8839,2.884,2.8874,2.8882,2.8882,2.891,2.8906,2.8937,2.8934,2.8984,2.8977,2.8979,2.8976,2.9009,2.9006,2.9122,2.9135,2.9036,2.9037,2.9038,0,2.8764,2.8795,2.881,2.8827,2.8836,2.8864,2.888,2.8873,2.889,2.8909,2.8932,2.8958,2.8979,2.9024,2.9026,2.9049,2.9042,2.9081,2.9045,2.9046,2.904,2.9037,2.9039,2.9087,2.9089,2.909,2.909,0,2.8858,2.8856,2.8881,2.8905,2.8925,2.8943,2.896,2.8974,2.8968,2.8988,2.9017,2.9033,2.9064,2.909,2.9111,2.9118,2.9102,2.9102,2.911,2.9112,2.9111,2.911,2.8996,2.9099,2.9098,2.9097,2.9097,2.9096,2.8926,2.8952,2.8966,2.8993,2.9005,2.902,2.9044,2.9047,2.9071,2.9096,2.909,2.9122,2.9134,2.9162,2.917,2.9194,2.9179,2.9193,2.9195,2.9198,2.9201,2.9109,2.9198,2.9198,2.9198,2.9197,2.9197,0,2.9018,2.9026,2.9051,2.9074,2.9095,2.908,2.9097,2.9115,2.9143,2.9157,2.9177,2.9209,2.9233,2.9237,2.926,2.9278,2.9271,2.9284,2.9282,2.9283,2.9214,2.9203,2.9289,2.9289,2.9289,2.9289,2.9289,2.9289,2.9068,2.911,2.9109,2.9156,2.9163,2.9194,2.9204,2.9218,2.9228,2.9264,2.9285,2.9288,2.9297,2.932,2.9341,2.9341,2.935,2.9365,2.9362,2.9297,2.9288,2.9279,2.9269,2.9367,2.9367,2.9429,2.9429,2.943]}]]